{"data":{"norad_id":51757,"intl_designator":"2022-016AV","name":"STARLINK-3459","alt_names":[],"object_type":"PAYLOAD","status":"ACTIVE","operator":null,"country":"US","launch_date":"2022-02-21","launch_site_code":"AFETR","launch_vehicle":null,"mission":null,"orbit_class":"UNKNOWN","rcs_meters":null,"size_class":null,"mass_kg":null,"dimensions":null,"purposes":["comms"],"wikipedia_slug":null,"has_3d_model":false,"image_url":null,"decayed_at":null,"tle_current":{"epoch":"2026-09-20T00:49:30.304992Z","epoch_age_seconds":92110,"freshness":"FRESH","line1":"1 51757U 22016AV  26263.03437853  .00000622  00000+0  29549-4 0  9990","line2":"2 51757  53.1608 141.5519 0001211  91.4983 268.6158 15.34378429253254","mean_motion":15.34378429,"eccentricity":0.0001211,"inclination_deg":53.1608,"raan_deg":141.5519,"arg_perigee_deg":91.4983,"mean_anomaly_deg":268.6158,"bstar":2.9549e-5,"rev_number":25325,"period_min":93.849077436424,"perigee_km":461.93892099877,"apogee_km":463.59578803343,"semimajor_km":6840.9043545161,"source":"CELESTRAK","updated_at":"2026-09-20T09:00:39.935067Z"}}}